Theta_e
298 289 285 289 294 291 289 287 286 287 292 293 293 293 295 298 297 296 297 297 298 299 303 304 308 311 312 311 312 314 319 323 326 325 328 328 329 331 332 331 330 331 332 332
293 286 290 294 294 293 292 286 284 288 293 290 288 289 292 293 294 296 297 297 298 299 300 302 305 307 309 310 311 310 309 309 317 323 325 325 326 326 331 331 331 331 330 331
289 292 295 292 290 290 290 286 285 285 288 288 286 284 287 292 295 296 295 297 299 300 300 300 301 304 305 306 308 309 309 308 308 317 321 322 323 323 324 325 326 329 330 330
291 295 293 290 288 289 284 290 290 288 283 277 285 275 282 286 289 292 294 293 296 297 298 300 299 299 301 306 307 309 310 310 310 310 313 318 320 320 320 323 325 326 328 328
288 290 290 289 290 290 286 291 289 288 284 281 280 278 280 285 284 286 290 293 295 296 297 298 299 302 305 308 310 311 311 312 313 312 310 314 316 319 320 321 323 324 326 330
291 295 293 291 293 292 292 289 288 287 284 276 282 280 280 284 285 287 291 293 295 297 296 299 302 305 305 306 307 307 307 305 306 306 310 313 312 316 317 318 320 322 318 312
287 289 293 294 289 290 290 285 273 272 272 273 282 280 284 286 287 288 289 292 294 296 297 299 300 301 302 303 303 302 301 299 300 300 301 303 304 306 307 307 308 306 305 303
281 279 289 293 289 287 287 285 277 270 272 276 283 277 282 291 294 293 292 293 294 294 298 297 298 298 298 299 298 297 297 296 296 296 297 298 299 299 298 298 298 299 299 299
282 282 291 293 293 292 286 284 287 281 277 275 278 281 287 290 291 291 291 292 292 295 296 296 295 294 294 294 294 294 294 294 294 294 294 294 295 295 295 296 296 296 297 297
287 280 289 291 292 293 289 291 282 282 268 266 276 276 279 284 287 290 290 291 293 294 294 294 293 292 291 291 290 291 291 291 292 292 291 291 293 293 293 293 293 293 293 293
290 285 283 289 287 286 287 286 286 285 280 274 272 275 284 287 289 289 291 292 294 294 293 292 291 290 289 288 288 288 289 289 290 289 288 288 288 289 289 289 289 290 290 290
291 286 281 284 290 293 290 287 287 281 278 281 279 277 288 289 291 290 290 291 293 294 292 290 289 288 287 286 285 285 286 287 287 286 285 285 286 286 285 285 285 286 285 287
290 285 278 280 284 290 287 288 289 288 283 280 276 278 290 292 287 290 291 292 292 291 289 288 287 286 285 284 284 284 284 284 284 284 283 282 282 282 282 282 283 283 283 284
288 286 282 277 280 285 284 286 288 287 282 281 281 283 285 287 287 288 290 291 291 290 289 287 286 285 284 283 282 282 282 282 282 282 281 280 281 281 281 282 282 282 283 283
285 279 284 284 285 286 286 286 286 285 286 282 284 284 288 290 289 289 289 292 290 289 288 287 286 285 283 281 281 281 280 280 280 279 279 279 280 280 280 280 280 281 281 281
286 278 281 279 284 284 282 286 287 287 287 286 286 285 292 291 289 289 290 291 291 290 289 288 287 284 281 281 280 280 279 279 279 278 278 279 279 279 279 279 279 279 279 279
284 282 277 273 280 280 276 281 284 285 288 288 284 288 293 291 292 292 292 290 292 292 290 287 286 285 282 281 280 279 278 279 278 278 278 278 278 278 278 278 277 277 277 277
281 279 279 273 274 269 279 287 288 286 287 289 289 290 292 292 294 295 295 291 293 293 291 288 287 285 281 280 279 278 278 278 277 277 276 277 277 276 276 276 276 276 276 275
285 281 274 268 272 276 278 283 283 283 283 289 288 290 291 292 292 292 293 295 295 294 293 291 288 283 279 278 278 278 277 277 276 275 275 276 276 276 275 274 274 275 275 275
283 284 279 271 268 262 277 284 287 287 279 289 289 289 290 291 285 288 293 292 293 293 289 284 280 278 277 277 278 277 276 275 274 274 274 275 275 274 273 274 274 274 275 274
277 278 274 275 274 274 282 285 286 276 279 288 289 289 290 287 290 292 286 283 283 282 279 278 278 277 276 277 277 276 274 273 273 274 273 273 273 273 273 273 273 273 273 273
276 275 274 276 272 269 284 283 282 283 284 283 283 286 287 287 284 281 277 277 276 276 276 276 275 275 276 277 276 273 271 272 271 271 271 271 272 273 272 272 272 272 272 271
272 279 273 279 276 283 281 281 280 279 281 280 279 279 280 280 279 275 274 274 274 274 274 275 274 274 274 274 273 271 270 271 270 270 269 270 271 271 271 271 270 269 270 269
278 282 281 281 283 284 284 282 279 278 278 278 277 277 278 278 276 274 274 273 273 272 272 272 272 271 270 271 272 270 270 270 269 268 269 269 269 269 269 270 269 269 268 267
280 280 279 279 282 283 282 280 278 278 276 276 276 277 278 276 275 274 273 272 272 271 271 271 270 268 267 268 268 269 269 269 269 268 268 268 268 268 267 268 268 268 268 269
278 280 280 279 282 282 282 276 277 276 275 275 275 275 276 276 274 273 272 272 271 270 269 269 268 267 266 266 266 266 267 269 268 266 266 266 265 266 266 265 265 269 269 269
Wind_Speed
4 4 9 10 13 4 4 4 6 4 5 6 12 9 9 10 8 9 9 8 7 7 8 7 8 9 7 6 8 9 9 8 7 4 6 5 8 7 7 7 7 9 10 11
3 10 7 7 7 10 11 4 4 5 2 3 4 11 9 8 9 10 10 10 10 7 7 7 6 9 9 9 9 8 8 8 6 5 5 5 5 4 7 8 8 10 10 9
6 5 17 9 8 10 11 8 4 6 3 2 2 12 8 10 17 17 11 9 10 14 12 9 8 8 6 7 8 8 9 8 6 8 3 1 2 1 2 3 4 7 10 10
10 13 9 9 6 8 7 7 6 2 3 4 3 9 6 6 10 9 16 10 11 11 7 7 7 6 6 4 5 6 4 3 2 2 3 7 7 7 4 4 4 5 8 8
9 11 13 14 14 6 6 3 5 3 2 2 2 3 8 7 6 8 11 15 14 11 12 9 8 8 6 5 4 3 3 7 6 2 1 4 5 4 4 3 5 5 5 7
12 1 8 9 6 9 5 6 6 5 4 6 9 7 9 8 8 7 8 10 17 13 5 7 6 8 6 5 7 7 8 6 7 7 6 2 3 3 3 2 2 3 6 5
2 10 3 5 11 4 6 9 2 3 1 9 6 11 19 6 7 6 7 10 8 8 9 9 9 7 6 7 7 6 7 6 6 7 7 6 6 7 7 5 5 6 4 5
11 6 14 7 7 8 14 10 7 10 7 5 8 13 8 15 19 11 10 8 10 8 10 8 8 8 8 7 7 7 7 7 6 6 7 6 7 6 6 7 7 6 7 6
10 11 4 9 5 16 7 14 8 3 2 2 6 7 8 4 7 6 9 10 10 8 10 11 8 8 8 7 7 7 7 6 6 6 6 7 8 9 9 9 9 7 7 7
4 3 7 12 5 8 13 11 12 4 3 5 6 5 8 3 7 6 7 7 7 8 9 8 8 9 7 8 7 8 7 7 6 7 6 7 8 9 9 9 9 8 7 7
3 3 1 12 14 20 11 11 6 6 5 6 3 9 9 17 11 11 10 10 13 12 11 10 9 8 8 8 7 7 6 7 7 7 7 8 8 9 9 9 8 8 8 8
23 4 10 12 9 18 22 19 23 10 15 13 5 9 4 9 8 6 9 6 6 8 10 9 10 10 9 8 7 7 6 7 6 7 8 8 9 9 9 9 8 7 7 6
10 11 11 4 8 7 12 23 18 18 2 14 8 10 10 16 2 5 6 6 9 9 8 9 10 9 9 8 7 6 6 7 6 7 8 7 7 7 7 7 6 6 6 6
14 10 14 20 15 9 12 17 21 19 14 15 13 23 7 7 5 6 4 6 9 11 13 10 9 10 10 9 9 7 6 6 6 7 6 7 6 6 6 6 6 6 6 6
3 4 5 18 16 9 13 17 19 21 24 17 24 27 23 16 11 8 6 9 8 11 11 12 12 11 10 11 9 7 6 6 6 7 7 6 6 6 6 6 6 6 7 7
7 4 6 7 6 10 13 12 18 22 24 24 26 23 19 8 4 7 10 9 9 12 15 14 12 13 14 14 12 10 8 7 7 6 6 6 6 6 6 7 7 8 8 8
10 4 1 6 5 6 10 17 21 19 15 12 23 27 21 19 16 15 15 10 15 16 16 15 18 19 16 15 14 12 10 9 8 8 6 6 6 7 6 6 7 9 7 5
7 2 4 9 4 10 10 5 18 23 23 19 19 23 26 26 25 21 14 11 16 16 14 17 17 15 13 13 13 13 11 10 9 8 7 6 6 7 6 6 6 4 8 7
17 6 4 3 6 8 6 8 9 13 23 23 21 24 27 23 20 20 14 17 18 16 19 20 15 13 13 15 15 15 12 10 9 9 7 6 5 6 7 7 6 5 8 5
10 12 7 1 4 6 8 14 9 5 12 16 22 25 23 22 13 20 13 11 14 11 9 13 15 16 17 15 15 15 13 11 10 9 8 6 5 7 6 6 6 5 5 7
3 3 12 11 7 8 11 15 6 11 10 21 14 15 18 12 15 14 8 4 2 4 13 15 16 15 15 15 15 14 13 11 9 9 8 7 6 7 6 7 5 5 6 8
5 3 4 4 5 7 6 5 9 5 5 5 3 10 9 8 7 2 4 7 12 16 16 15 16 14 13 14 14 14 12 9 8 8 8 6 5 5 4 6 5 6 6 7
6 9 6 9 8 6 2 4 3 3 5 4 3 1 3 5 3 3 4 6 8 11 12 12 15 16 12 13 14 15 11 10 9 8 8 7 6 6 5 5 6 5 6 5
6 3 6 3 9 13 8 4 4 3 5 4 3 3 3 5 5 6 7 9 9 10 11 12 14 14 13 11 12 13 13 11 10 8 8 7 6 6 5 4 4 5 4 4
6 3 4 7 10 8 5 5 3 5 5 5 5 4 6 7 6 8 9 9 10 11 10 11 13 12 12 11 11 10 11 10 11 9 7 7 6 5 5 4 3 4 4 2
5 5 4 14 8 8 8 2 6 5 5 7 6 4 1 3 7 7 6 7 10 11 10 11 10 14 11 11 11 8 8 9 10 9 7 6 5 5 4 3 3 5 3 2
Wind_Direction
213 151 196 195 196 193 130 167 221 261 247 159 217 232 238 268 293 262 255 251 245 241 248 236 207 196 196 193 184 180 172 195 166 165 183 200 208 212 213 213 201 202 212 208
164 229 208 201 202 213 249 222 244 289 44 120 295 273 256 242 248 236 234 238 235 247 262 262 229 179 175 181 193 183 179 181 191 195 193 186 174 192 198 203 200 200 204 213
195 223 187 205 202 204 224 209 205 209 31 332 355 279 238 245 236 238 220 218 218 222 229 239 231 236 213 206 206 199 195 196 197 197 193 170 101 36 147 191 192 193 201 204
228 244 172 214 220 184 225 180 190 243 83 232 104 281 258 266 249 237 240 225 223 214 215 218 216 194 139 122 100 107 113 160 213 253 204 191 197 204 200 190 193 197 190 199
217 191 212 220 216 185 215 150 195 178 180 73 257 330 278 266 272 251 235 225 228 221 213 209 214 140 129 118 89 57 55 44 17 347 286 217 207 194 185 178 201 220 200 194
226 259 188 209 182 167 167 79 52 51 92 267 206 192 244 217 216 240 227 221 215 218 189 140 115 110 108 93 79 74 78 49 33 36 34 55 216 205 161 133 147 93 66 71
184 246 257 148 178 164 134 131 39 14 316 234 215 207 245 235 263 231 238 223 223 210 143 150 138 116 94 75 75 77 75 59 49 53 51 55 68 78 90 79 78 73 70 56
205 224 215 185 192 180 187 171 157 188 197 235 182 229 253 222 236 228 205 205 197 200 160 144 131 117 105 92 87 87 82 76 63 59 61 59 58 64 68 71 77 81 77 66
195 227 152 191 176 162 175 207 174 89 7 84 221 293 306 209 205 193 196 179 190 139 133 139 131 117 111 102 97 98 92 83 73 69 61 66 72 75 75 71 72 68 63 70
246 229 188 180 155 249 180 165 203 187 187 254 256 250 236 253 233 199 195 187 130 139 146 141 132 128 117 110 104 91 87 87 81 73 71 74 79 81 79 75 73 71 66 67
252 185 275 142 195 194 197 198 198 168 182 195 239 250 206 211 213 203 205 196 169 168 156 154 146 130 126 118 114 111 103 100 85 76 70 71 68 70 70 68 63 64 66 63
212 251 228 211 206 207 206 200 199 192 212 224 262 254 345 133 114 118 237 258 162 168 160 145 138 137 131 125 117 109 99 91 88 82 76 73 76 75 76 72 63 55 56 41
203 224 228 227 245 221 228 218 204 219 25 211 198 258 202 261 283 172 151 151 160 153 144 143 144 148 141 133 123 115 103 94 88 87 87 80 75 76 75 73 64 61 57 49
337 219 217 229 229 202 214 221 214 203 220 230 223 252 256 291 268 276 155 186 177 172 165 162 163 160 151 143 136 131 118 114 113 103 99 96 90 89 81 74 67 64 62 64
214 312 277 257 242 209 215 200 220 213 223 226 237 250 251 236 240 249 221 215 176 174 177 184 175 167 157 149 145 138 128 125 118 112 108 102 94 87 85 80 73 65 55 56
165 259 241 270 337 278 262 225 219 228 235 237 245 251 252 258 235 232 230 205 187 198 198 190 173 164 170 166 154 146 142 128 116 109 109 111 103 99 92 87 81 72 56 43
174 221 1 270 244 270 284 240 227 224 228 227 241 247 267 264 255 246 241 200 199 206 203 184 185 186 177 167 154 149 139 130 126 125 118 113 108 99 89 86 79 82 69 59
255 189 205 261 131 232 239 234 227 231 239 226 232 246 252 247 252 249 242 187 210 211 193 198 193 181 165 150 142 136 137 136 133 126 122 119 116 108 102 87 87 84 102 81
214 193 259 210 224 262 303 230 189 206 239 233 237 241 247 254 258 262 222 212 215 207 205 202 182 156 145 145 140 135 134 132 131 132 126 122 123 122 121 113 118 97 88 93
205 216 221 248 226 215 244 249 206 142 247 229 223 238 246 250 254 261 246 204 220 217 176 153 145 141 138 145 140 137 137 133 134 133 128 117 115 113 98 108 101 90 99 91
151 186 227 244 255 268 252 256 150 178 231 249 223 231 237 240 234 270 130 133 82 112 126 126 135 141 139 138 135 134 133 134 128 120 115 112 113 114 122 115 107 111 93 89
184 245 211 197 222 278 261 88 197 237 324 324 127 230 244 260 301 338 110 138 135 134 134 137 129 128 132 133 132 130 123 112 108 113 117 116 104 112 114 117 112 95 91 91
234 198 206 196 217 252 178 258 306 292 276 307 277 262 272 265 228 136 112 110 115 122 125 128 127 124 126 125 131 128 127 129 127 126 132 130 120 122 120 119 110 92 82 75
275 156 233 49 282 263 293 258 231 251 253 269 268 271 257 254 164 138 130 133 123 122 119 119 118 118 118 120 120 122 138 139 136 139 137 134 131 120 108 104 105 105 110 102
191 120 206 252 265 284 239 241 268 234 236 288 294 277 249 172 175 156 146 140 133 126 124 128 126 121 119 119 119 127 136 142 138 142 142 137 136 137 130 118 127 126 107 91
151 204 233 261 269 232 277 31 318 273 252 224 230 262 232 169 156 140 136 133 132 132 132 127 130 125 128 124 125 129 141 151 143 148 154 155 144 141 134 140 117 73 94 58